Weather History for Cairns, QU

Change the Weather History Date:

Tuesday, July 22, 2014

  Actual Average Record
Temperature  
Mean Temperature 67 °F -  
Max Temperature 77 °F 79 °F 82 °F (1998)
Min Temperature 57 °F 63 °F 51 °F (2011)
Cooling Degree Days 2    
Growing Degree Days 17 (Base 50)    
Moisture  
Dew Point 55 °F    
Average Humidity 66    
Maximum Humidity 88    
Minimum Humidity 34    
Precipitation  
Precipitation 0.00 in 0.03 in - ()
Sea Level Pressure  
Sea Level Pressure 30.06 in    
Wind  
Wind Speed 8 mph ()    
Max Wind Speed 15 mph    
Max Gust Speed -    
Visibility 7.4 miles    
Events      
Averages and records for this station are not official NWS values.
T = Trace of Precipitation, MM = Missing Value Source: Averaged Metar Reports

Daily Weather History Graph

Daily Weather History Graph

Search for Another Location

Airport:

Trip Planner

Search our weather history database for the weather conditions in past years. The results will help you decide how hot, cold, wet, or windy it might be!

Date:

Astronomy

Jul. 22, 2014 Rise Set
Actual Time 6:45 AM AEST 6:01 PM AEST
Civil Twilight 6:22 AM AEST 6:24 PM AEST
Nautical Twilight 5:56 AM AEST 6:50 PM AEST
Astronomical Twilight 5:29 AM AEST 7:17 PM AEST
Moon 2:35 AM AEST (7/22) 2:13 PM AEST (7/22)
Length of Visible Light 12h 01m
Length of Day
11h 15m
Waning Crescent, 21% of the Moon is Illuminated
Jul 22
Waning Crescent
Jul 27
New
Aug 4
First Quarter
Aug 11
Full
Aug 17
Last Quarter

Hourly Weather History & Observations

Time (AEST) Temp. Dew Point Humidity Pressure Visibility Wind Dir Wind Speed Gust Speed Precip Events Conditions
12:00 AM 61 °F 56 °F 77% 30.11 in - SE 8.1 mph - -  
12:00 AM 60.8 °F 55.4 °F 82% 30.09 in 6.2 mi SE 8.1 mph - N/A   Partly Cloudy
12:30 AM 59.0 °F 55.4 °F 88% 30.09 in 6.2 mi West 1.2 mph - N/A   Partly Cloudy
1:00 AM 59 °F 55 °F 82% 30.11 in - South 2.3 mph - -  
1:00 AM 59.0 °F 55.4 °F 88% 30.09 in 6.2 mi South 2.3 mph - N/A   Partly Cloudy
1:30 AM 59.0 °F 55.4 °F 88% 30.09 in 6.2 mi SSE 2.3 mph - N/A   Partly Cloudy
2:00 AM 60.8 °F 55.4 °F 82% 30.09 in 6.2 mi SE 11.5 mph - N/A   Partly Cloudy
2:30 AM 60.8 °F 55.4 °F 82% 30.09 in 6.2 mi SSE 9.2 mph - N/A   Partly Cloudy
3:00 AM 60 °F 55 °F 77% 30.08 in - SE 10.4 mph - -  
3:00 AM 60.8 °F 55.4 °F 82% 30.06 in 6.2 mi SE 10.4 mph - N/A   Partly Cloudy
3:30 AM 59.0 °F 53.6 °F 82% 30.06 in 6.2 mi SE 13.8 mph - N/A   Partly Cloudy
4:00 AM 60 °F 54 °F 74% 30.08 in - SSE 15.0 mph - -  
4:00 AM 59.0 °F 53.6 °F 82% 30.06 in 6.2 mi SSE 15.0 mph - N/A   Partly Cloudy
4:30 AM 59.0 °F 53.6 °F 82% 30.06 in 6.2 mi SSE 12.7 mph - N/A   Partly Cloudy
5:00 AM 59.0 °F 53.6 °F 82% 30.06 in 6.2 mi SSE 12.7 mph - N/A   Partly Cloudy
5:30 AM 59.0 °F 53.6 °F 82% 30.06 in 6.2 mi SSE 13.8 mph - N/A   Partly Cloudy
6:00 AM 58 °F 54 °F 81% 30.09 in 19 mi SSE 11.5 mph - -   Partly Cloudy
6:00 AM 57.2 °F 53.6 °F 88% 30.06 in 6.2 mi SSE 11.5 mph - N/A   Partly Cloudy
6:30 AM 57.2 °F 53.6 °F 88% 30.09 in 6.2 mi SSE 9.2 mph - N/A   Partly Cloudy
7:00 AM 58 °F 54 °F 81% 30.11 in - SSE 10.4 mph - -  
7:00 AM 59.0 °F 53.6 °F 82% 30.09 in 6.2 mi SSE 10.4 mph - N/A   Partly Cloudy
7:30 AM 59.0 °F 55.4 °F 88% 30.09 in 6.2 mi SSE 10.4 mph - N/A   Partly Cloudy
8:00 AM 62.6 °F 55.4 °F 77% 30.09 in 6.2 mi SE 12.7 mph - N/A   Partly Cloudy
8:30 AM 64.4 °F 55.4 °F 73% 30.09 in 6.2 mi SE 11.5 mph - N/A   Partly Cloudy
9:00 AM 68 °F 54 °F 51% 30.12 in 19 mi ESE 11.5 mph - -   Smoke
9:00 AM 68.0 °F 53.6 °F 60% 30.12 in 6.2 mi ESE 11.5 mph - N/A   Partly Cloudy
9:30 AM 69.8 °F 53.6 °F 56% 30.12 in 6.2 mi SSE 8.1 mph - N/A   Partly Cloudy
10:00 AM 72 °F 51 °F 37% 30.13 in - South 9.2 mph - -  
10:00 AM 71.6 °F 51.8 °F 50% 30.12 in 6.2 mi South 9.2 mph - N/A   Partly Cloudy
10:30 AM 71.6 °F 53.6 °F 53% 30.09 in 6.2 mi South 9.2 mph - N/A   Partly Cloudy
11:00 AM 73.4 °F 53.6 °F 50% 30.09 in 6.2 mi South 8.1 mph - N/A   Partly Cloudy
11:30 AM 75.2 °F 55.4 °F 50% 30.09 in 6.2 mi SSE 6.9 mph - N/A   Partly Cloudy
12:00 PM 75 °F 55 °F 39% 30.08 in 19 mi SE 8.1 mph - -   Smoke
12:00 PM 75.2 °F 55.4 °F 50% 30.06 in 6.2 mi SE 8.1 mph - N/A   Partly Cloudy
12:30 PM 75.2 °F 55.4 °F 50% 30.06 in 6.2 mi SSE 8.1 mph - N/A   Partly Cloudy
1:00 PM 77 °F 56 °F 38% 30.04 in - East 9.2 mph - -  
1:00 PM 77.0 °F 55.4 °F 47% 30.04 in 6.2 mi East 9.2 mph - N/A   Partly Cloudy
1:30 PM 77.0 °F 57.2 °F 50% 30.01 in 6.2 mi NE 9.2 mph - N/A   Partly Cloudy
2:00 PM 77.0 °F 57.2 °F 50% 30.01 in 6.2 mi NE 12.7 mph - N/A   Partly Cloudy
2:30 PM 77.0 °F 55.4 °F 47% 29.98 in 6.2 mi NE 11.5 mph - N/A   Partly Cloudy
3:00 PM 77 °F 54 °F 34% 29.99 in 16 mi NE 11.5 mph - -   Smoke
3:00 PM 77.0 °F 53.6 °F 44% 29.98 in 6.2 mi NE 11.5 mph - N/A   Partly Cloudy
3:30 PM 77.0 °F 53.6 °F 44% 29.98 in 6.2 mi East 13.8 mph - N/A   Partly Cloudy
4:00 PM 75 °F 55 °F 39% 30.01 in - East 13.8 mph - -  
4:00 PM 75.2 °F 55.4 °F 50% 30.01 in 6.2 mi East 13.8 mph - N/A   Partly Cloudy
4:30 PM 75.2 °F 53.6 °F 47% 30.01 in 6.2 mi East 12.7 mph - N/A   Overcast
5:00 PM 73.4 °F 55.4 °F 53% 30.01 in 6.2 mi East 8.1 mph - N/A   Partly Cloudy
5:30 PM 71.6 °F 55.4 °F 57% 30.01 in 6.2 mi SE 6.9 mph - N/A   Partly Cloudy
6:00 PM 69 °F 57 °F 58% 30.02 in - South 5.8 mph - -  
6:00 PM 69.8 °F 57.2 °F 64% 30.01 in - South 5.8 mph - N/A   Clear
6:30 PM 66.2 °F 57.2 °F 73% 30.01 in - SSE 6.9 mph - N/A   Clear
7:00 PM 69 °F 59 °F 61% 30.05 in - South 8.1 mph - -  
7:00 PM 69.8 °F 59.0 °F 68% 30.04 in - South 8.1 mph - N/A   Clear
7:30 PM 68.0 °F 59.0 °F 73% 30.04 in - South 8.1 mph - N/A   Clear
8:00 PM 68.0 °F 57.2 °F 68% 30.06 in - South 4.6 mph - N/A   Clear
9:00 PM 67 °F 58 °F 65% 30.07 in - South 9.2 mph - -  
9:00 PM 66.2 °F 57.2 °F 73% 30.06 in - South 9.2 mph - N/A   Clear
9:30 PM 66.2 °F 57.2 °F 73% 30.06 in - South 9.2 mph - N/A   Clear
10:00 PM 66 °F 57 °F 66% 30.08 in - South 10.4 mph - -  
10:00 PM 66.2 °F 57.2 °F 73% 30.06 in - South 10.4 mph - N/A   Clear
10:30 PM 64.4 °F 57.2 °F 77% 30.06 in - SSE 9.2 mph - N/A   Clear
11:00 PM 66.2 °F 57.2 °F 73% 30.06 in - SSE 9.2 mph - N/A   Clear
11:30 PM 64.4 °F 57.2 °F 77% 30.06 in - SSE 6.9 mph - N/A   Clear